Regional Weather Roundup
Issued by NWS

Home | Current Version | Previous Version | Text Only | Print | Product List | Glossary Off
Versions: 1 2 3 4 5 6 7 8 9 10 11 12 13 14 15 16 17 18 19 20 21 22 23 24 25 26 27 28 29 30 31 32 33 34 35 36 37 38 39 40 41 42 43 44 45 46 47 48 49 50

000
ASUS43 KMPX 200510
RWRMN
WEATHER ROUNDUP FOR MINNESOTA
NATIONAL WEATHER SERVICE TWIN CITIES/CHANHASSEN MN
1200 AM CDT FRI APR 20 2018


NOTE: "FAIR" INDICATES FEW OR NO CLOUDS BELOW 12,000 FEET WITH NO
SIGNIFICANT WEATHER AND/OR OBSTRUCTIONS TO VISIBILITY. N/A MEANS
CURRENT SKY AND/OR WEATHER CONDITIONS ARE NOT AVAILABLE.

MNZ060>063-068>070-200600-
   Twin Cities Metro

CITY           SKY/WX    TMP DP  RH WIND       PRES   REMARKS
TWIN CITIES    FAIR      40  24  53 SW3       30.45S
ST PAUL        FAIR      36  24  62 CALM      30.46S
CRYSTAL        FAIR      34  24  67 CALM      30.44S
BLAINE         FAIR      36  25  64 CALM      30.44S
LAKEVILLE      FAIR      27  23  86 CALM      30.45S
EDEN PRAIRIE   FAIR      36  22  56 SW3       30.44S
SOUTH ST PAUL  FAIR      35  23  63 CALM      30.45S
LAKE ELMO      FAIR      32  25  74 CALM      30.45F
$$
MNZ001>005-007-008-013>017-022>024-027-028-200600-
   Northwest Minnesota

CITY           SKY/WX    TMP DP  RH WIND       PRES   REMARKS
BEMIDJI        FAIR      32  21  64 CALM      30.39R
HALLOCK        FAIR      37  34  87 S7        30.37R
ROSEAU         FAIR      39  32  75 CALM      30.38R
WARROAD        FAIR      36  28  75 SW3       30.38S
THIEF RVR FALL FAIR      38  30  73 CALM      30.39S
CROOKSTON      FAIR      39  34  81 CALM      30.39S
FOSSTON        FAIR      30  12  47 CALM      30.39S
DETROIT LAKES  FAIR      36  30  80 CALM      30.41R
MOORHEAD       FAIR      41  28  60 SE7       30.40R
PARK RAPIDS    FAIR      37  25  61 CALM      30.39R
MAHNOMEN       FAIR      35  25  68 S5        30.39R WCI  31
$$
MNZ006-009>011-018-025>026-200600-
   North Central Minnesota

CITY           SKY/WX    TMP DP  RH WIND       PRES   REMARKS
BAUDETTE       FAIR      32  24  72 CALM      30.36S
FLAG ISLAND    FAIR      30  19  64 S6        30.36R WCI  24
INTL FALLS     FAIR      29  19  66 CALM      30.37R
WASKISH        FAIR      28  21  74 CALM      30.38R
BIG FORK       FAIR      28  18  64 CALM      30.38R
LONGVILLE      FAIR      28  23  80 CALM      30.39S
GRAND RAPIDS   FAIR      31  18  58 CALM      30.40S
CRANE LAKE     FAIR      23  21  93 CALM      30.39S
ORR            FAIR      30  10  43 CALM      30.35S
COOK           FAIR      27  21  80 CALM      30.38S
WALKER         FAIR      37  23  55 SW3       30.39R
$$
MNZ012-019>021-037-200600-
   Northeast Minnesota

CITY           SKY/WX    TMP DP  RH WIND       PRES   REMARKS
DULUTH         FAIR      39  17  41 W8        30.38S
ELY            FAIR      27  19  74 CALM      30.37S
HIBBING        FAIR      25  18  74 CALM      30.37S
EVELETH        FAIR      28  20  71 CALM      30.39S
DULUTH HARBOR  FAIR      39  21  48 SW7       30.40S
TWO HARBORS    FAIR      32  18  55 CALM      30.36S
SILVER BAY     FAIR      28  19  69 CALM      30.37S
GRAND MARAIS     N/A     32  20  61 CALM      30.38S
G MARAIS ARPRT FAIR      27  18  69 CALM      30.37S
$$
MNZ029>031-032-039>041-046>048-054>057-064-200600-
   West Central Minnesota

CITY           SKY/WX    TMP DP  RH WIND       PRES   REMARKS
FERGUS FALLS   FAIR      36  30  80 S7        30.40R
WHEATON        CLOUDY    39  30  70 S10       30.43S
MORRIS         CLOUDY    34  30  86 S6        30.42S WCI  29
ALEXANDRIA     FAIR      37  25  61 S6        30.42F
ELBOW LAKE     FAIR      32  29  87 S7        30.43R WCI  26
WADENA         FAIR      36  28  75 SW6       30.40F
GLENWOOD       FAIR      36  25  64 SW6       30.43S
APPLETON       CLEAR     36  27  69 S6        30.44S
BENSON         CLEAR     34  27  75 SW5       30.45S WCI  30
ORTONVILLE     CLOUDY    36  28  75 S5        30.43S
MADISON        CLOUDY    36  28  75 S5        30.44R
WILLMAR        FAIR      34  27  75 CALM      30.47R
$$
MNZ033>034-036-042>043-049>051-058-059-200600-
   Central Minnesota

CITY           SKY/WX    TMP DP  RH WIND       PRES   REMARKS
ST CLOUD       FAIR      32  28  85 CALM      30.43S
SAUK CENTRE    FAIR      36  25  64 CALM      30.43S
PAYNESVILLE    FAIR      36  29  74 SW3       30.44S
AITKIN         FAIR      25  21  86 CALM      30.39S
PINE RIVER     FAIR      28  21  74 CALM      30.43R
BRAINERD       FAIR      35  21  56 SW6       30.41R WCI  30
STAPLES        FAIR      36  25  64 SW6       30.41S
LONG PRAIRIE   FAIR      34  27  75 S5        30.43S WCI  30
LITTLE FALLS   FAIR      32  21  64 CALM      30.43S
LITCHFIELD     FAIR      34  28  80 CALM      30.45S
BUFFALO        FAIR      34  26  75 CALM      30.45S
MAPLE LAKE     FAIR      33  29  85 CALM      30.45S
HUTCHINSON     FAIR      31  29  92 CALM      30.46S
$$
MNZ037-044-045-052-053-200600-
   East Central Minnesota

CITY           SKY/WX    TMP DP  RH WIND       PRES   REMARKS
PRINCETON      FAIR      32  27  80 CALM      30.44R
MORA           FAIR      32  27  80 CALM      30.44S
CAMBRIDGE      FAIR      34  23  64 CALM      30.44S
RUSH CITY      FAIR      37  25  61 SW5       30.43S
MOOSE LAKE     FAIR      32  18  55 CALM      30.38F
HINCKLEY       FAIR      32  25  74 CALM      30.42S
CLOQUET        FAIR      39  12  33 W5        30.39S
MCGREGOR       FAIR      32  23  69 SW3       30.41R
$$
MNZ071>073-080-081-089-090-097-098-200600-
   Southwest Minnesota

CITY           SKY/WX    TMP DP  RH WIND       PRES   REMARKS
MONTEVIDEO     CLOUDY    32  27  80 SW6       30.45S WCI  26
GRANITE FALLS  CLOUDY    32  28  85 S6        30.47R WCI  26
CANBY          CLOUDY    36  26  68 W6        30.44S
MARSHALL       CLOUDY    31  25  78 S9        30.45S WCI  23
REDWOOD FALLS  CLOUDY    29  23  78 S8        30.45S WCI  21
OLIVIA         CLEAR     34  28  80 S3        30.45S
PIPESTONE      CLOUDY   N/A N/A N/A SE5       30.42F
WINDOM         CLOUDY    27  12  54 CALM      30.45S
WORTHINGTON    CLOUDY    29  22  75 SE5       30.45S WCI  24
JACKSON        CLOUDY    25  21  86 W3        30.46S
TRACY          PTCLDY    33  26  77 S9        30.44S WCI  25
SLAYTON        CLOUDY    29  26  88 CALM      30.45S
$$
MNZ065>067-074>077-082>085-091>093-200600-
   South Central Minnesota

CITY           SKY/WX    TMP DP  RH WIND       PRES   REMARKS
MANKATO        FAIR      32  22  66 SW5       30.47R WCI  27
NEW ULM        CLOUDY    28  21  74 SW3       30.46S
ST JAMES       CLOUDY    27  21  80 SW6       30.48R WCI  20
FAIRMONT       CLOUDY    24  20  84 CALM      30.47S
GLENCOE        FAIR      29  26  91 CALM      30.45R
OWATONNA       FAIR      30  25  80 CALM      30.45F
WASECA         FAIR      27  23  86 CALM      30.48S
ALBERT LEA     FAIR      25  19  80 CALM      30.46S
$$
MNZ078>079-086>088-094>096-200600-
   Southeast Minnesota

CITY           SKY/WX    TMP DP  RH WIND       PRES   REMARKS
ROCHESTER      FAIR      33  24  69 W8        30.45S WCI  26
RED WING       FAIR      30  19  64 CALM      30.45S
STANTON        FAIR      29  25  82 S5        30.44S WCI  24
DODGE CENTER   FAIR      30  25  80 W6        30.45S WCI  24
WINONA         FAIR      32  28  86 NW3       30.45S
AUSTIN         FAIR      27  21  80 CALM      30.46R
PRESTON        FAIR      33  22  65 W3        30.45S
$$
ABBREVIATIONS USED IN REMARKS
   TC - TEMPERATURES IN CELSIUS
  WCI - WIND CHILL INDEX
   HX - HEAT INDEX
  VSB - VISIBILITY
$$



USA.gov is the U.S. government's official web portal to all federal, state and local government web resources and services.